Regional Weather Roundup
Issued by NWS Newport/Morehead, NC

Current Version | Previous Version | Text Only | Print | Product List | Glossary On
Versions: 1 2 3 4 5 6 7 8 9 10 11 12 13 14 15 16 17 18 19 20 21 22 23 24 25 26 27 28 29 30 31 32 33 34 35 36 37 38 39 40 41 42 43 44 45 46 47 48 49 50
000
ASUS42 KMHX 271913
RWRMHX
WEATHER ROUNDUP FOR EASTERN NORTH CAROLINA
NATIONAL WEATHER SERVICE NEWPORT/MOREHEAD CITY NC
300 PM EDT FRI MAY 27 2016

NOTE: "FAIR" INDICATES FEW OR NO CLOUDS BELOW 12,000 FEET
WITH NO SIGNIFICANT WEATHER AND/OR OBSTRUCTIONS TO VISIBILITY

NCZ015>017-031-032-045>047-102-103-272000-
NORTH COAST

CITY           SKY/WX    TMP DP  RH WIND       PRES   REMARKS
EDENTON        SUNNY     85  62  46 S8        30.13F
ELIZABETH CITY SUNNY     82  62  50 E16       30.13F
KITTY HAWK     CLEAR     86  55  35 SE6       30.14F
MANTEO         NOT AVBL

$$

NCZ045>047-081-094-103-104-272000-
CENTRAL COAST

CITY           SKY/WX    TMP DP  RH WIND       PRES   REMARKS
FRISCO         SUNNY     81  64  56 SE6       30.16F

$$

NCZ095-097-098-100-101-272000-
SOUTHERN COAST

CITY           SKY/WX    TMP DP  RH WIND       PRES   REMARKS
BEAUFORT       SUNNY     81  62  52 E9G17     30.15F
CEDAR ISLAND   NOT AVBL
JACKSONVILLE   SUNNY     82  55  39 SE14      30.14F
PINEY ISLAND   CLEAR    N/A N/A N/A E14       30.15F
WILMINGTON     SUNNY     80  58  46 E15       30.14F


$$

NCZ011>013-027>030-043-044-078>080-089-090>093-098-272000-
COASTAL PLAIN

CITY           SKY/WX    TMP DP  RH WIND       PRES   REMARKS
AHOSKIE        MOSUNNY   83  64  51 CALM      30.11F
CLINTON        SUNNY     86  64  46 SE3       30.11F
ELIZABETHTOWN  MOSUNNY   86  57  37 SE6       30.11S
GOLDSBORO      SUNNY     86  59  39 SE6       30.10F
GREENVILLE     SUNNY     88  61  40 S3        30.13F
HAVELOCK       SUNNY     83  50  31 E12       30.15F
KENANSVILLE    MOSUNNY   84  58  41 SE3       30.13S
KINSTON        MOSUNNY   86  57  37 SE9       30.12F
NEW BERN       SUNNY     84  57  39 SE9       30.14F
RICHLANDS      SUNNY     83  56  39 SE10G16   30.14F
ROCKY MOUNT    PTSUNNY   86  64  47 SW8       30.11F
WASHINGTON     SUNNY     84  60  44 S9        30.12F
WHITEVILLE     MOSUNNY   84  60  43 SE6       30.11S

$$

AMZ130-135-150-152-154-156-158-170-250-252-270-ANZ085-086-088-633-658-670-272000-
MARINE OBSERVATIONS

STATION/POSITION TIME  TEMP    WIND        PRES    WAVE   SWELL
                       AIR SEA DIR/SP/G            HT/PER HT/PER
                 (UTC) (F)     (DEG/KT/KT) (MB)    (FT/S) (FT/S)
CHESAPEAKE LIGHT 1800   71     170/ 24/ 26 1020.8
64 E VA BEACH    1850   68 62  170/  6/  8 1021.4    2/ 7   2/ 7
DUCK             1800   71 62  130/ 17/ 19 1020.6
2 E DUCK         1811      65                N/A     2/ 8
OREGON INLET     1800   77 76  190/  7/  8 1021.6
13E OREGON INLT  1900      74                N/A     2/ 8   2/ 8
HATTERAS CG      1800   77 73  130/  6/  7 1021.0
DIAMOND BUOY     1850   76 79  130/ 12/ 16 1021.1    2/ 8   2/ 8
CAPE LOOKOUT     1900   76     110/  7/  8 1020.6
BEAUFORT LAB     1800   76 72  120/  9/ 13 1020.5
30 SE NEW RVR IN 1825      75                N/A     2/ 8
27 SE WRIGHTSVLE 1808   76 75   60/  8/ 12 1021.1
5 SE WRIGHTSVLE  1808   76 75  110/  6/ 10 1021.6
225 S CAPE HAT   1850   77 78   70/ 19/ 21 1018.2    4/ 5   2/ 9
41 SE CHARLESTON 1850   76 77   40/ 14/ 16 1019.1    3/ 7   2/ 7

$$




USA.gov is the U.S. government's official web portal to all federal, state and local government web resources and services.